www.pogodaiklimat.ru

Погода и климат >> Архив погоды >> Индонезия >> Аэропорт Умбу Механг Кунда


ПОГОДА в Аэропорту Умбу Механг Кунда

  • Прогноз погоды в Аэропорту Умбу Механг Кунда
  • Монитор погоды в Аэропорту Умбу Механг Кунда

АРХИВ ПОГОДЫ в Аэропорту Умбу Механг Кунда

Время (UTC), дата Ветер
(напр.,м/с)
 
Видим.   Явления Облачность Т
(С)
Тd
(С)
f
(%)
Тe
(С)
Тes
(С)
Комфортность P
(гПа)
Po
(гПа)
Тmin
(С)
Tmax
(С)
R
(мм)
R24
(мм)
S
(см)
21 18.08 ЮЗ 4 5000 м 1/1 600 м
[Cu hum Ci fib]
+21.7 +19.2 86 +27 +27 душно 1015.2 1014.0
00 19.08 С 3 10 км 1/1 600 м
[Cu hum Ci fib]
+22.4 +16.1 68 +27 +30 душно 1016.3 1015.1 +19.2
03 19.08 штиль 0 50 км ?/? +30.2 +17.9 48 +35 +35 очень
душно
1015.6 1014.4
06 19.08 В 6 10 км 1/1 600 м
[Cu hum Ci fib]
+29.4 +21.3 62 +37 +42 очень
душно
1012.3 1011.1
09 19.08 В 5 10 км 1/1 600 м
[Cu hum Ci fib]
+28.8 +20.9 62 +36 +36 очень
душно
1011.8 1010.6
12 19.08 С 2 5000 м 1/1 600 м
[Cu hum Ci fib]
+25.8 +20.0 70 +32 +32 очень
душно
1014.5 1013.3 +31.0
15 19.08 штиль 0 5000 м 1/1 600 м
[Cu hum Ci fib]
+23.9 +20.7 82 +30 +30 очень
душно
1015.7 1014.5
18 19.08 С 2 5000 м 1/1 600 м
[Cu hum Ci fib]
+23.6 +21.0 85 +30 +30 очень
душно
1015.3 1014.1
21 19.08 штиль 0 5000 м 1/1 600 м
[Cu hum Ci fib]
+20.8 +19.5 92 +25 +25 комфорт 1014.9 1013.7
00 20.08 штиль 0 10 км 1/1 600 м
[Cu hum Ci fib]
+23.4 +19.9 81 +30 +36 очень
душно
1016.3 1015.1 +20.6
03 20.08 СВ 7 10 км 3/1 600 м
[Cu hum Ac trans Ci fib]
+29.1 +21.2 62 +37 +41 очень
душно
1014.9 1013.7
06 20.08 СВ 8 10 км 1/1 600 м
[Cu hum Ci fib]
+30.4 +20.8 57 +38 +40 очень
душно
1012.6 1011.4
09 20.08 СВ 5 10 км 1/1 600 м
[Cu hum Ci fib]
+30.2 +13.8 37 +32 +32 жарко 1012.4 1011.2
12 20.08 штиль 0 5000 м 1/1 600 м
[Cu hum Ci fib]
+25.4 +19.0 68 +30 +30 душно 1014.2 1013.0 +31.6
15 20.08 штиль 0 5000 м 1/1 600 м
[Cu hum Ci fib]
+24.7 +19.2 71 +30 +30 очень
душно
1014.8 1013.6
18 20.08 штиль 0 5000 м 1/1 600 м
[Cu hum Ci fib]
+23.1 +19.6 81 +30 +30 очень
душно
1013.6 1012.4
21 20.08 штиль 0 5000 м 1/1 600 м
[Cu hum Ci fib]
+23.8 +21.8 89 +31 +31 очень
душно
1013.2 1012.0
00 21.08 В 5 10 км 8/5 600 м
[Cu med, cong Ac trans Ci sp]
+26.6 +23.6 84 +36 +37 очень
душно
1015.0 1013.8 +20.6
03 21.08 В 6 10 км 6/4 600 м
[Cu med, cong Ci sp]
+28.8 +23.5 73 +39 +44 очень
душно
1013.9 1012.7
06 21.08 В 7 10 км 5/5 600 м
[Cu med, cong Ci fib]
+30.1 +20.3 56 +37 +39 очень
душно
1011.4 1010.2
09 21.08 В 8 10 км 1/1 600 м
[Cu hum Ci fib]
+28.1 +17.8 54 +33 +33 очень
душно
1010.9 1009.7
12 21.08 штиль 0 50 км ?/? +25.6 +19.6 69 +31 +31 очень
душно
1013.7 1012.5 +30.6
15 21.08 штиль 0 50 км ?/? +24.4 +19.8 76 +30 +30 очень
душно
1015.5 1013.8
18 21.08 штиль 0 5000 м 1/1 600 м
[Cu hum Ci fib]
+22.6 +19.8 84 +29 +29 очень
душно
1014.8 1013.8
21 21.08 штиль 0 5000 м 1/1 600 м
[Cu hum Ci fib]
+23.3 +20.1 82 +30 +30 очень
душно
1014.9 1013.1
00 22.08 Ю 4 10 км 5/3 600 м
[Cu med, cong Ac trans Ci sp]
+25.6 +21.0 76 +32 +34 очень
душно
1016.3 1015.1 +21.0
03 22.08 СВ 8 10 км 1/1 600 м
[Cu hum Ci fib]
+30.6 +18.9 50 +36 +39 очень
душно
1015.2 1014.0
06 22.08 СВ 6 10 км 1/1 600 м
[Cu hum Ci fib]
+30.2 +18.2 49 +35 +40 очень
душно
1012.9 1011.7
09 22.08 СВ 6 10 км 1/1 600 м
[Cu hum Ci fib]
+29.0 +18.0 51 +33 +34 очень
душно
1013.4 1012.2
12 22.08 СВ 4 5000 м 1/1 600 м
[Cu hum Ci fib]
+25.2 +19.7 72 +31 +31 очень
душно
1015.8 1014.6 +32.0
15 22.08 штиль 0 5000 м 3/1 600 м
[Cu hum Ci fib]
+24.3 +20.5 79 +30 +30 очень
душно
1016.3 1015.1
18 22.08 штиль 0 5000 м 3/1 600 м
[Cu hum Ci fib]
+21.5 +19.5 88 +26 +26 душно 1015.6 1014.4
21 22.08 ЮЗ 4 5000 м 4/1 600 м
[Cu hum Ci fib]
+20.8 +18.3 86 +25 +25 комфорт 1015.6 1014.4
00 23.08 штиль 0 10 км 1/1 600 м
[Cu hum Ci fib]
+23.4 +19.7 80 +30 +36 очень
душно
1016.7 1015.5 +20.6
03 23.08 СВ 6 10 км 1/1 600 м
[Cu hum Ci fib]
+30.4 +18.4 49 +35 +43 очень
душно
1014.9 1013.7
06 23.08 С 7 10 км 1/1 600 м
[Cu hum Ci fib]
+28.8 +22.0 67 +37 +41 очень
душно
1012.8 1011.6
09 23.08 СВ 6 10 км 3/1 600 м
[Cu hum Ci fib]
+28.4 +20.8 63 +35 +36 очень
душно
1012.4 1011.2
12 23.08 СВ 2 5000 м 1/1 600 м
[Cu hum Ci fib]
+25.2 +19.7 72 +31 +31 очень
душно
1014.5 1013.3 +30.6
15 23.08 штиль 0 5000 м 1/1 600 м
[Cu hum Ci fib]
+25.3 +20.1 73 +31 +31 очень
душно
1014.8 1013.6
18 23.08 ЮЗ 2 5000 м 1/1 600 м
[Cu hum Ci fib]
+23.2 +18.4 74 +29 +29 душно 1014.5 1013.2
21 23.08 ЮЗ 2 5000 м 1/1 600 м
[Cu hum Ci fib]
+22.2 +18.2 78 +27 +27 душно 1014.1 1012.9
00 24.08 ЮЗ 3 10 км 8/6 600 м
[Cu med, cong Ac trans Ci sp]
+23.6 +18.8 74 +28 +30 душно 1015.8 1014.4 +21.8
03 24.08 СВ 3 10 км 8/5 600 м
[Cu med, cong Ac trans Ci sp]
+30.2 +20.6 56 +37 +42 очень
душно
1014.2 1013.0
06 24.08 С 7 10 км 4/4 600 м
[Cu med, cong Ci fib]
+28.8 +22.7 70 +38 +41 очень
душно
1011.5 1010.3
09 24.08 СВ 6 10 км 5/4 600 м
[Cu med, cong Ac trans Ci fib]
+28.6 +20.0 60 +35 +35 очень
душно
1011.6 1010.4
12 24.08 штиль 0 5000 м 3/1 600 м
[Cu hum Ci fib]
+25.8 +21.4 77 +33 +33 очень
душно
1013.7 1012.5 +31.0
15 24.08 штиль 0 5000 м 3/1 600 м
[Cu hum Ci fib]
+23.6 +21.0 85 +30 +30 очень
душно
1015.0 1013.8
18 24.08 штиль 0 5000 м 3/1 600 м
[Cu hum Ci fib]
+21.8 +19.6 87 +27 +27 душно 1014.0 1012.8
21 24.08 штиль 0 5000 м 3/1 600 м
[Cu hum Ci fib]
+20.6 +18.8 89 +24 +24 комфорт 1013.6 1012.4
00 25.08 штиль 0 10 км 1/1 600 м
[Cu hum Ci fib]
+22.6 +19.5 83 +29 +35 очень
душно
1014.9 1013.7 +20.2
03 25.08 СВ 6 10 км 1/1 600 м
[Cu hum Ci fib]
+29.2 +22.1 66 +38 +45 очень
душно
1014.4 1013.2
06 25.08 С 6 10 км 1/1 600 м
[Cu hum Ci fib]
+29.0 +22.1 66 +37 +42 очень
душно
1011.3 1010.1
09 25.08 СВ 5 10 км 1/1 600 м
[Cu hum Ci fib]
+28.8 +22.0 67 +37 +38 очень
душно
1010.6 1009.4
12 25.08 штиль 0 5000 м 1/1 600 м
[Cu hum Ci fib]
+23.9 +21.7 88 +31 +31 очень
душно
1013.0 1011.8
15 25.08 штиль 0 5000 м 1/1 600 м
[Cu hum Ci fib]
+19.8 +17.1 84 +22 +22 комфорт 1014.3 1013.1
18 25.08 С 3 5000 м 1/1 600 м
[Cu hum Ci fib]
+20.4 +18.4 88 +24 +24 комфорт 1013.5 1012.4

 

Местоположение метеостанции Аэропорт Умбу Механг Кунда (Индонезия): широта -9.67 долгота 120.33 высота над уровнем моря 12 м.

В архиве по умолчанию представлена погода в Аэропорту Умбу Механг Кунда за последнюю неделю. Архивные данные за месяц целиком и за предыдущие месяцы, начиная с января 2011 года, Вы можете получить, выбрав интересующий диапазон дат из раскрывающегося списка и нажав кнопку "Ввод!".


*Определитесь, кто Вы:
робот инопланетянин человек

Внимание! Время в таблицах - всемирное. Для получения местного времени необходимо прибавить поправку, которая равна 7 ч.

Смотрите также архив погоды в соседних городах и на ближайших метеорологических станциях:

Погода в Рутенге (Индонезия) (116 км)
Погода в Сабу (Индонезия) (188 км)
Погода в Биме (Индонезия) (218 км)
Погода в Маумере (Индонезия) (240 км)
Погода на Роти (Индонезия) (322 км)
Погода в Ларантуке (Индонезия) (329 км)
Погода в Сумбава-Бесаре (Индонезия) (347 км)
Погода в Купанге (Индонезия) (369 км)
Погода в Матараме (Индонезия) (486 км)
Погода на Алоре (Индонезия) (492 км)

Пояснения к столбцам:

Ветер - указаны скорость ветра в м/с - средняя за 10 мин, порывы в срок и между сроками (в фигурных скобках) и направление, откуда дует ветер: С - северный, СВ - северо-восточный, В - восточный, ЮВ - юго-восточный, Ю - южный, ЮЗ - юго-западный, З - западный, СЗ - северо-западный.
Видимость - горизонтальная дальность видимости в метрах или километрах. При видимости от 1 до 10 км при отсутствии осадков обычно наблюдается дымка, при ухудшении видимости до 1 км и менее - туман. В сухую погоду видимость может ухудшаться дымом, пылью или мглою.
Явления - указаны атмосферные явления, наблюдавшиеся в срок или в последний час перед сроком; фигурными скобками обозначены явления, наблюдавшиеся между сроками (за 1-3 часа до срока); квадратными скобками обозначены град или гололедные отложения с указанием их диаметра в мм.
Облачность - указаны через наклонную черту общая и нижняя облачность в баллах и высота нижней границы облаков в метрах; квадратными скобками обозначены формы облаков: Ci - перистые, Cs - перисто-слоистые, Cc - перисто-кучевые, Ac - высококучевые, As - высокослоистые, Sc - слоисто-кучевые, Ns - слоисто-дождевые, Cu - кучевые, Cb - кучево-дождевые. Подробнее классификацию облаков см. в Атласе облаков (PDF).
T - Температура воздуха - температура, измеренная на высоте 2 м над землей.
Td - Температура точки росы - температура, при понижении до которой содержащийся в воздухе водяной пар достигнет насыщения.
f - Относительная влажность воздуха - влажноcть воздуха, измеренная на высоте 2 м над землей.
Te - Эффективная температура - температура, которую ощущает одетый по сезону человек в тени. Характеристика душности погоды. При расчете учитывается влияние влажности воздуха и скорости ветра на теплоощущения человека.
Tes - Эффективная температура на солнце - температура, которую ощущает человек, с поправкой на солнечный нагрев. Характеристика знойности погоды. Зависит от высоты солнца над горизонтом, облачности и скорости ветра. Ночью, в пасмурную погоду, а также при ветре 12 м/с и более поправка равна нулю.
P - Атмосферное давление - приведенное к уровню моря атмосферное давление.
Po - Атмосферное давление - измеренное на уровне метеостанции атмосферное давление.
Tmin - Минимальная температура - минимум температуры воздуха на высоте 2 м над землей.
Tmax - Максимальная температура - максимум температуры воздуха на высоте 2 м над землей.
R - Количество осадков - Количество выпавших осадков за период времени, мм. При наведении курсора мыши на число - период времени, за который выпало указанное количество осадков.
R24 - Количество осадков - Количество выпавших осадков за 24 часа, мм.
S - Снежный покров - Высота снежного покрова, см. При наведении курсора мыши на число - состояние снежного покрова и степень покрытия местности в баллах.